GMADGMMX

Guest
Details From GMAD - Al Massira
To GMMX - Menara
Flight Number -
Tags Generated
Created
Modified
Stats Distance 105 nm / 194 km
Max Altitude 0 ft / 0 m
Waypoints 2
Social Downloads 1
Likes 0
Share VATSIM

Download

Looking for another format? Having issues loading an existing format? Contact us
Advertisement - Login to hide

Notes

Generated

Route

GMAD GMMX

ID Type Via Altitude Latitude Longitude Leg Dist Tot Dist Heading (true) Name
O GMAD APT - 0 ft / 0 m 30.32539˚ -9.42970˚ - 0 nm - -
O GMMX APT - 0 ft / 0 m 31.60837˚ -8.05254˚ 104 nm 104 nm 42° / 43° -

Altitude Profile

Advertisement - Login to hide

GMAD

Details ICAO GMAD
Name Agadir AL MASSIRA
Region Morocco
Timezone Africa/Casablanca (UTC+0.0)
Stats Elevation 250 ft / 76 m (AMSL)
Location 30.322623° -9.411528°
Runways 1
Magnetic Variation 2.483° W

METAR

GMAD 121200Z 06003KT 340V130 CAVOK 17/09 Q1010 NOSIG

Decode

TAF

TAF GMAD 121100Z 1212/1318 07003KT CAVOK

Decode

Departure Runways

ID Width Length Bearing (true) Bearing (mag) Surface Threshold Offset Overrun Length
10 148 ft / 45 m 10,509 ft / 3,203 m 91.58° 94.06° Asphalt 0 ft / 0 m 0 ft / 0 m
28 148 ft / 45 m 10,509 ft / 3,203 m 271.60° 274.08° Asphalt 0 ft / 0 m 0 ft / 0 m

GMMX

Details ICAO GMMX (RAK)
Name MENARA
Region Morocco
Timezone Africa/Casablanca (UTC+0.0)
Stats Elevation 1,545 ft / 471 m (AMSL)
Location 31.606920° -8.036265°
Runways 1
Magnetic Variation 2.000° W

METAR

GMMX 121200Z 08005KT 5000 SCT010 BKN020 10/06 Q1016 RERA NOSIG

Decode

TAF

TAF GMMX 121100Z 1212/1318 32015KT 8000 BKN023 BECMG 1222/1224 06006KT CAVOK

Decode

Destination Runways

ID Width Length Bearing (true) Bearing (mag) Surface Threshold Offset Overrun Length
10 148 ft / 45 m 10,169 ft / 3,100 m 95.99° 97.99° Asphalt 918 ft / 280 m 0 ft / 0 m
28 148 ft / 45 m 10,169 ft / 3,100 m 276.00° 278.00° Asphalt 0 ft / 0 m 0 ft / 0 m

Approach Navaids

Runway Type Ident Frequency Range Bearing (true) Bearing (mag) Slope Elevation
10 Localiser MAR 109.70 MHz 18 nm / 33 km 96.03° 98.02° - 1,545 ft / 471 m (AMSL)
10 Glidescope MAR 109.70 MHz 10 nm / 19 km 96.00° 98.00° 3.00° 1,558 ft / 475 m (AMSL)

Popular Alternatives